Location: Caltech
(34.1382°N, 118.1253°W)
Time: 22:38:57
(UTC-07:00)

USA 129 - Visible Passes

Search period start: 28 June 2016 00:00
Search period end: 08 July 2016 00:00
Orbit: 241 x 674 km, 97.5° (Epoch: 24 April)

Date Brightness Start Highest point End Pass type
(mag) Time Alt. Az. Time Alt. Az. Time Alt. Az.
28 Jun 3.0 04:49:23 20° SW 04:49:58 23° W 04:51:46 10° NW visible
29 Jun 3.8 04:08:28 18° ESE 04:09:30 28° ENE 04:11:23 10° NNE visible
30 Jun 3.2 04:54:53 17° WSW 04:55:28 19° W 04:57:04 10° NW visible
01 Jul 3.4 04:13:45 20° SE 04:14:45 33° ENE 04:16:38 10° N visible
02 Jul 3.4 04:59:56 15° WSW 05:00:27 16° W 05:01:50 10° NW visible
03 Jul 3.0 04:18:34 23° SE 04:19:29 38° ENE 04:21:22 10° N visible
04 Jul 3.6 05:04:31 13° WSW 05:04:56 14° W 05:06:04 10° WNW visible
05 Jul 2.6 04:22:57 26° SE 04:23:44 44° ENE 04:25:35 10° N visible
06 Jul 3.7 05:08:40 11° WSW 05:08:56 12° W 05:09:44 10° WNW visible
07 Jul 2.2 04:26:53 31° SE 04:27:30 50° ENE 04:29:16 10° N visible
